Time,TemperatureF,DewpointF,PressureIn,WindDirection,WindDirectionDegrees,WindSpeedMPH,WindSpeedGustMPH,Humidity,HourlyPrecipIn,Conditions,Clouds,dailyrainin,SoftwareType,DateUTC
2013-07-14 00:13:00,55.2,49.0,29.74,WSW,245,0.0,2.0,80,0.00,,,0.00,weatherlink.com 1.10,2013-07-14 06:13:00,
2013-07-14 00:28:00,55.1,49.0,29.74,WSW,245,0.0,2.0,80,0.00,,,0.00,weatherlink.com 1.10,2013-07-14 06:28:00,
2013-07-14 00:43:00,55.0,49.0,29.74,WSW,245,0.0,0.0,80,0.00,,,0.00,weatherlink.com 1.10,2013-07-14 06:43:00,
2013-07-14 00:58:00,54.8,49.0,29.74,WSW,245,0.0,0.0,81,0.00,,,0.00,weatherlink.com 1.10,2013-07-14 06:58:00,
2013-07-14 01:12:00,54.7,49.0,29.73,WSW,245,0.0,0.0,82,0.00,,,0.00,weatherlink.com 1.10,2013-07-14 07:12:00,
2013-07-14 01:29:00,54.7,49.0,29.73,WSW,245,1.0,1.0,81,0.00,,,0.00,weatherlink.com 1.10,2013-07-14 07:29:00,
2013-07-14 01:42:00,54.6,49.0,29.72,WSW,245,1.0,3.0,82,0.00,,,0.00,weatherlink.com 1.10,2013-07-14 07:42:00,
2013-07-14 01:57:00,54.1,49.0,29.72,WSW,245,1.0,3.0,84,0.00,,,0.00,weatherlink.com 1.10,2013-07-14 07:57:00,
2013-07-14 02:12:00,53.3,49.0,29.73,WSW,245,0.0,1.0,85,0.00,,,0.00,weatherlink.com 1.10,2013-07-14 08:12:00,
2013-07-14 02:27:00,52.4,48.0,29.73,WSW,245,0.0,2.0,86,0.00,,,0.00,weatherlink.com 1.10,2013-07-14 08:27:00,
2013-07-14 02:43:00,52.4,49.0,29.73,WSW,245,0.0,2.0,87,0.00,,,0.00,weatherlink.com 1.10,2013-07-14 08:43:00,
2013-07-14 02:58:00,52.1,48.0,29.73,WSW,245,0.0,1.0,86,0.00,,,0.00,weatherlink.com 1.10,2013-07-14 08:58:00,
2013-07-14 03:13:00,51.5,48.0,29.73,WSW,245,0.0,2.0,86,0.00,,,0.00,weatherlink.com 1.10,2013-07-14 09:13:00,
2013-07-14 03:28:00,51.1,47.0,29.73,WSW,245,1.0,1.0,87,0.00,,,0.00,weatherlink.com 1.10,2013-07-14 09:28:00,
2013-07-14 03:43:00,51.0,48.0,29.74,WSW,245,0.0,1.0,88,0.00,,,0.00,weatherlink.com 1.10,2013-07-14 09:43:00,
2013-07-14 03:58:00,50.5,47.0,29.74,WSW,245,0.0,3.0,88,0.00,,,0.00,weatherlink.com 1.10,2013-07-14 09:58:00,
2013-07-14 04:13:00,49.9,47.0,29.74,WSW,245,0.0,0.0,88,0.00,,,0.00,weatherlink.com 1.10,2013-07-14 10:13:00,
2013-07-14 04:28:00,49.6,47.0,29.73,WSW,245,0.0,0.0,90,0.00,,,0.00,weatherlink.com 1.10,2013-07-14 10:28:00,
2013-07-14 04:43:00,49.3,47.0,29.74,WSW,245,0.0,0.0,90,0.00,,,0.00,weatherlink.com 1.10,2013-07-14 10:43:00,
2013-07-14 04:58:00,49.3,47.0,29.74,WSW,245,0.0,0.0,91,0.00,,,0.00,weatherlink.com 1.10,2013-07-14 10:58:00,
2013-07-14 05:14:00,49.1,47.0,29.75,WSW,245,0.0,2.0,91,0.00,,,0.00,weatherlink.com 1.10,2013-07-14 11:14:00,
2013-07-14 05:28:00,48.7,46.0,29.75,WSW,245,0.0,0.0,91,0.00,,,0.00,weatherlink.com 1.10,2013-07-14 11:28:00,
2013-07-14 05:43:00,48.4,46.0,29.76,WSW,245,0.0,0.0,91,0.00,,,0.00,weatherlink.com 1.10,2013-07-14 11:43:00,
2013-07-14 05:58:00,48.1,46.0,29.76,WSW,245,0.0,0.0,92,0.00,,,0.00,weatherlink.com 1.10,2013-07-14 11:58:00,
2013-07-14 06:13:00,48.5,46.0,29.76,WSW,245,0.0,0.0,92,0.00,,,0.00,weatherlink.com 1.10,2013-07-14 12:13:00,
2013-07-14 06:28:00,49.0,47.0,29.77,WSW,245,0.0,0.0,93,0.00,,,0.00,weatherlink.com 1.10,2013-07-14 12:28:00,
2013-07-14 06:43:00,49.5,48.0,29.77,WSW,245,0.0,0.0,93,0.00,,,0.00,weatherlink.com 1.10,2013-07-14 12:43:00,
2013-07-14 06:59:00,50.3,48.0,29.77,WSW,245,0.0,0.0,93,0.00,,,0.00,weatherlink.com 1.10,2013-07-14 12:59:00,
2013-07-14 07:13:00,51.0,49.0,29.77,SSE,157,0.0,1.0,91,0.00,,,0.00,weatherlink.com 1.10,2013-07-14 13:13:00,
2013-07-14 07:28:00,51.8,48.0,29.77,South,172,0.0,4.0,88,0.00,,,0.00,weatherlink.com 1.10,2013-07-14 13:28:00,
2013-07-14 07:43:00,52.8,49.0,29.76,SE,132,0.0,1.0,87,0.00,,,0.00,weatherlink.com 1.10,2013-07-14 13:43:00,
2013-07-14 07:58:00,56.5,51.0,29.76,SE,132,0.0,0.0,81,0.00,,,0.00,weatherlink.com 1.10,2013-07-14 13:58:00,
2013-07-14 08:14:00,60.1,51.0,29.75,SE,125,0.0,1.0,73,0.00,,,0.00,weatherlink.com 1.10,2013-07-14 14:14:00,
2013-07-14 08:29:00,62.5,52.0,29.75,ESE,111,0.0,3.0,68,0.00,,,0.00,weatherlink.com 1.10,2013-07-14 14:29:00,
2013-07-14 08:44:00,63.0,51.0,29.74,ENE,65,0.0,1.0,64,0.00,,,0.00,weatherlink.com 1.10,2013-07-14 14:44:00,
2013-07-14 08:59:00,64.5,51.0,29.75,ENE,66,0.0,3.0,61,0.00,,,0.00,weatherlink.com 1.10,2013-07-14 14:59:00,
2013-07-14 09:14:00,65.2,51.0,29.75,NE,52,0.0,1.0,60,0.00,,,0.00,weatherlink.com 1.10,2013-07-14 15:14:00,
2013-07-14 09:29:00,67.9,50.0,29.74,NNW,329,0.0,5.0,53,0.00,,,0.00,weatherlink.com 1.10,2013-07-14 15:29:00,
2013-07-14 09:44:00,68.7,50.0,29.74,NNW,327,0.0,1.0,52,0.00,,,0.00,weatherlink.com 1.10,2013-07-14 15:44:00,
2013-07-14 10:00:00,70.2,49.0,29.74,NE,34,0.0,4.0,48,0.00,,,0.00,weatherlink.com 1.10,2013-07-14 16:00:00,
2013-07-14 10:15:00,69.8,49.0,29.75,WSW,247,0.0,7.0,47,0.00,,,0.00,weatherlink.com 1.10,2013-07-14 16:15:00,
2013-07-14 10:30:00,70.0,46.0,29.75,WSW,243,1.0,7.0,43,0.00,,,0.00,weatherlink.com 1.10,2013-07-14 16:30:00,
2013-07-14 10:45:00,69.1,47.0,29.75,NNW,338,2.0,5.0,45,0.00,,,0.00,weatherlink.com 1.10,2013-07-14 16:45:00,
2013-07-14 11:00:00,70.3,47.0,29.75,NE,55,3.0,6.0,44,0.00,,,0.00,weatherlink.com 1.10,2013-07-14 17:00:00,
2013-07-14 11:14:00,71.0,43.0,29.74,NNE,25,1.0,5.0,37,0.00,,,0.00,weatherlink.com 1.10,2013-07-14 17:14:00,
2013-07-14 11:29:00,71.9,45.0,29.74,NNE,29,0.0,5.0,38,0.00,,,0.00,weatherlink.com 1.10,2013-07-14 17:29:00,
2013-07-14 11:44:00,71.0,45.0,29.74,NE,43,2.0,8.0,40,0.00,,,0.00,weatherlink.com 1.10,2013-07-14 17:44:00,
2013-07-14 11:59:00,69.6,46.0,29.74,NNW,338,0.0,4.0,43,0.00,,,0.00,weatherlink.com 1.10,2013-07-14 17:59:00,
2013-07-14 12:15:00,68.4,46.0,29.74,WNW,285,6.0,9.0,44,0.00,,,0.00,weatherlink.com 1.10,2013-07-14 18:15:00,
2013-07-14 12:30:00,64.2,47.0,29.75,WSW,250,2.0,15.0,54,0.00,,,0.00,weatherlink.com 1.10,2013-07-14 18:30:00,
2013-07-14 12:45:00,63.5,44.0,29.74,WSW,248,8.0,13.0,50,0.00,,,0.00,weatherlink.com 1.10,2013-07-14 18:45:00,
2013-07-14 13:00:00,68.3,45.0,29.74,NW,308,5.0,11.0,43,0.00,,,0.00,weatherlink.com 1.10,2013-07-14 19:00:00,
2013-07-14 13:15:00,68.8,43.0,29.73,North,350,0.0,8.0,40,0.00,,,0.00,weatherlink.com 1.10,2013-07-14 19:15:00,
2013-07-14 13:30:00,71.4,44.0,29.73,NNE,19,0.0,6.0,37,0.00,,,0.00,weatherlink.com 1.10,2013-07-14 19:30:00,
2013-07-14 13:46:00,70.5,44.0,29.73,WSW,251,0.0,9.0,38,0.00,,,0.00,weatherlink.com 1.10,2013-07-14 19:46:00,
2013-07-14 14:01:00,71.6,43.0,29.73,NE,34,6.0,9.0,36,0.00,,,0.00,weatherlink.com 1.10,2013-07-14 20:01:00,
2013-07-14 14:15:00,71.3,49.0,29.73,East,82,6.0,16.0,46,0.00,,,0.00,weatherlink.com 1.10,2013-07-14 20:15:00,
2013-07-14 14:30:00,68.4,48.0,29.73,NE,49,0.0,13.0,49,0.00,,,0.00,weatherlink.com 1.10,2013-07-14 20:30:00,
2013-07-14 14:45:00,65.6,49.0,29.74,East,88,13.0,13.0,56,0.00,,,0.00,weatherlink.com 1.10,2013-07-14 20:45:00,
2013-07-14 15:00:00,64.8,50.0,29.74,ENE,69,0.0,15.0,60,0.00,,,0.00,weatherlink.com 1.10,2013-07-14 21:00:00,
2013-07-14 15:15:00,63.7,50.0,29.74,NE,43,6.0,15.0,61,0.00,,,0.00,weatherlink.com 1.10,2013-07-14 21:15:00,
2013-07-14 15:30:00,63.5,50.0,29.74,NE,53,2.0,12.0,61,0.00,,,0.00,weatherlink.com 1.10,2013-07-14 21:30:00,
2013-07-14 15:45:00,63.4,50.0,29.75,ENE,71,2.0,10.0,61,0.00,,,0.00,weatherlink.com 1.10,2013-07-14 21:45:00,
2013-07-14 16:00:00,63.2,50.0,29.74,NNE,32,4.0,10.0,62,0.00,,,0.00,weatherlink.com 1.10,2013-07-14 22:00:00,
2013-07-14 16:17:00,62.6,49.0,29.74,NE,37,1.0,12.0,62,0.00,,,0.00,weatherlink.com 1.10,2013-07-14 22:17:00,
2013-07-14 16:30:00,62.0,49.0,29.74,NE,44,0.0,17.0,62,0.00,,,0.00,weatherlink.com 1.10,2013-07-14 22:30:00,
2013-07-14 16:45:00,61.9,49.0,29.75,NE,35,0.0,7.0,63,0.00,,,0.00,weatherlink.com 1.10,2013-07-14 22:45:00,
2013-07-14 17:00:00,60.7,53.0,29.75,NW,321,5.0,6.0,75,0.00,,,0.00,weatherlink.com 1.10,2013-07-14 23:00:00,
2013-07-14 17:16:00,57.9,52.0,29.75,East,90,0.0,4.0,82,0.03,,,0.03,weatherlink.com 1.10,2013-07-14 23:16:00,
2013-07-14 17:31:00,57.1,53.0,29.75,East,90,0.0,1.0,86,0.03,,,0.03,weatherlink.com 1.10,2013-07-14 23:31:00,
2013-07-14 17:46:00,56.8,53.0,29.74,SW,218,0.0,1.0,87,0.06,,,0.06,weatherlink.com 1.10,2013-07-14 23:46:00,
2013-07-14 18:01:00,56.2,53.0,29.75,South,188,0.0,5.0,88,0.07,,,0.08,weatherlink.com 1.10,2013-07-15 00:01:00,
2013-07-14 18:15:00,55.7,53.0,29.75,West,263,2.0,3.0,89,0.12,,,0.15,weatherlink.com 1.10,2013-07-15 00:15:00,
2013-07-14 18:30:00,54.9,52.0,29.76,West,261,0.0,1.0,90,0.21,,,0.24,weatherlink.com 1.10,2013-07-15 00:30:00,
2013-07-14 18:45:00,54.4,52.0,29.77,West,261,1.0,3.0,91,0.20,,,0.26,weatherlink.com 1.10,2013-07-15 00:45:00,
2013-07-14 19:01:00,53.9,51.0,29.77,West,262,0.0,6.0,91,0.28,,,0.37,weatherlink.com 1.10,2013-07-15 01:01:00,
2013-07-14 19:16:00,53.6,51.0,29.79,South,182,2.0,5.0,92,0.28,,,0.44,weatherlink.com 1.10,2013-07-15 01:16:00,
2013-07-14 19:32:00,53.2,51.0,29.79,South,182,0.0,0.0,92,0.30,,,0.55,weatherlink.com 1.10,2013-07-15 01:32:00,
2013-07-14 19:46:00,52.9,51.0,29.79,WSW,255,0.0,5.0,92,0.40,,,0.67,weatherlink.com 1.10,2013-07-15 01:46:00,
2013-07-14 20:01:00,52.5,51.0,29.79,WSW,255,2.0,4.0,93,0.31,,,0.68,weatherlink.com 1.10,2013-07-15 02:01:00,
2013-07-14 20:16:00,52.3,50.0,29.81,WSW,255,0.0,2.0,93,0.27,,,0.71,weatherlink.com 1.10,2013-07-15 02:16:00,
2013-07-14 20:31:00,52.1,50.0,29.81,WSW,255,0.0,2.0,93,0.23,,,0.78,weatherlink.com 1.10,2013-07-15 02:31:00,
2013-07-14 20:46:00,52.0,50.0,29.80,WSW,254,2.0,2.0,93,0.13,,,0.81,weatherlink.com 1.10,2013-07-15 02:46:00,
2013-07-14 21:01:00,51.5,50.0,29.80,WSW,246,1.0,3.0,93,0.13,,,0.82,weatherlink.com 1.10,2013-07-15 03:01:00,
2013-07-14 21:16:00,51.3,49.0,29.81,WSW,246,0.0,3.0,93,0.10,,,0.82,weatherlink.com 1.10,2013-07-15 03:16:00,
2013-07-14 21:31:00,51.4,50.0,29.82,WSW,246,0.0,0.0,93,0.04,,,0.82,weatherlink.com 1.10,2013-07-15 03:31:00,
2013-07-14 21:46:00,51.2,49.0,29.82,WSW,246,0.0,0.0,93,0.00,,,0.82,weatherlink.com 1.10,2013-07-15 03:46:00,
2013-07-14 22:01:00,50.8,49.0,29.82,WSW,246,0.0,1.0,93,0.00,,,0.82,weatherlink.com 1.10,2013-07-15 04:01:00,
2013-07-14 22:16:00,50.6,49.0,29.82,WSW,246,0.0,2.0,93,0.00,,,0.82,weatherlink.com 1.10,2013-07-15 04:16:00,
2013-07-14 22:31:00,50.4,49.0,29.82,WSW,246,0.0,0.0,93,0.00,,,0.82,weatherlink.com 1.10,2013-07-15 04:31:00,
2013-07-14 22:46:00,50.6,49.0,29.83,WSW,246,2.0,2.0,93,0.00,,,0.82,weatherlink.com 1.10,2013-07-15 04:46:00,
2013-07-14 23:01:00,51.1,50.0,29.82,East,81,0.0,3.0,94,0.00,,,0.82,weatherlink.com 1.10,2013-07-15 05:01:00,
2013-07-14 23:16:00,51.0,49.0,29.82,East,80,0.0,2.0,94,0.00,,,0.82,weatherlink.com 1.10,2013-07-15 05:16:00,
2013-07-14 23:31:00,50.6,49.0,29.83,East,80,1.0,1.0,93,0.00,,,0.82,weatherlink.com 1.10,2013-07-15 05:31:00,
2013-07-14 23:46:00,50.4,49.0,29.83,East,80,0.0,0.0,94,0.00,,,0.82,weatherlink.com 1.10,2013-07-15 05:46:00,